Location: *
(52.4000°N, 0.2600°E)
Time: 22:15:48
(UTC+00:00)

Daily predictions for brighter satellites

Satellite Brightness Start Highest point End
(mag) Time Altitude Azimuth Time Altitude Azimuth Time Altitude Azimuth
ATLAS 3B R/B 2.7 16:16:24 10° NW 16:23:06 77° NE 16:29:57 10° SE
Meteor 1-20 Rocket 4.3 16:17:47 10° N 16:23:37 76° ENE 16:29:15 10° SSE
USA 267 4.0 16:17:51 10° SE 16:24:18 60° SW 16:30:47 10° WNW
Cosmos 371 Rocket 3.3 16:20:39 10° NNW 16:25:33 67° ENE 16:30:26 10° SE
Cosmos 1733 Rocket 4.3 16:24:27 10° NNE 16:27:41 20° ENE 16:30:55 10° ESE
Meteor 1-28 Rocket 3.3 16:24:21 10° NNE 16:28:07 82° WNW 16:31:53 10° SSW
CZ-4B R/B 3.2 16:23:38 10° SSE 16:28:57 90° ESE 16:34:24 10° NNW
Cosmos 1400 Rocket 3.1 16:25:30 10° S 16:29:29 52° E 16:33:28 10° NNE
Cosmos 1869 Rocket 3.7 16:28:35 10° N 16:32:55 54° ENE 16:37:16 10° SSE
CZ-4B R/B 1.6 16:30:25 10° NNE 16:33:57 80° WNW 16:37:27 10° SSW
NOSS 2-2 (C) 3.4 16:30:38 10° SSW 16:34:15 62° SE 16:38:30 10° NE
NOSS 8 (H) 4.4 16:33:26 10° SSW 16:36:29 59° SE 16:39:39 10° NE
Cosmos 2278 Rocket 2.8 16:33:45 10° NNW 16:38:54 34° NE 16:44:02 10° ESE
YAOGAN 6 4.3 16:37:38 10° E 16:39:27 14° ENE 16:41:17 10° NNE
ISS -3.7 16:36:22 10° W 16:39:43 80° S 16:43:05 10° E
Cosmos 1933 3.4 16:35:49 10° SSW 16:39:50 82° W 16:43:54 10° N
Cosmos 1606 2.7 16:37:03 10° S 16:40:50 89° ENE 16:44:40 10° N
Cosmos 1689 Rocket 2.1 16:38:03 10° NNE 16:41:07 74° ESE 16:44:08 10° S
RESURS DK-1 4.5 16:41:34 10° ESE 16:42:17 10° E 16:42:59 10° E
IRS-1C Rocket 4.2 16:37:20 10° SE 16:42:30 58° ENE 16:47:40 10° N
FENGYUN 3A 4.3 16:38:16 10° S 16:43:38 63° WSW 16:49:03 10° NNW
Lacrosse 4 Rocket 3.7 16:44:14 10° NNW 16:45:30 11° NNW 16:46:46 10° N
Okean O Rocket 2.2 16:44:32 10° S 16:48:51 63° WSW 16:53:11 10° NNW
Cosmos 2360 Rocket 2.3 16:45:44 10° SSW 16:51:19 65° ESE 16:56:58 10° NE
PSLV R/B 4.3 16:48:22 10° NNE 16:52:25 45° E 16:56:24 10° S
Meteor 1-14 Rocket 4.4 16:46:32 10° NNW 16:52:33 88° E 16:58:26 10° SSE
Cosmos 1048 Rocket 4.1 16:48:21 10° SSW 16:53:43 83° ESE 16:59:09 10° NNE
Cosmos 2369 Rocket 4.0 16:51:39 10° NNW 16:54:19 13° NNE 16:56:52 10° NE
Cosmos 2333 Rocket 3.2 16:50:40 10° SSE 16:55:29 29° ESE 16:59:52 12° NE
Cosmos 2228 Rocket 3.3 16:51:23 10° SSW 16:55:57 81° W 17:00:34 10° N
Cosmos 1302 Rocket 4.0 16:51:15 10° NNW 16:56:33 65° ENE 17:01:46 10° SE
NOSS 2-2 (E) 3.5 16:53:22 10° SW 16:57:07 77° NW 17:01:16 12° NE
Okean-O 3.1 16:53:39 10° SE 16:57:46 39° ENE 17:01:54 10° N
Cosmos 1980 Rocket 3.7 16:52:57 10° W 16:57:54 29° NW 17:02:52 10° NNE
ATLAS 2AS CENTAUR R/B 3.2 16:50:41 10° SSW 16:58:32 65° SE 17:06:03 12° NE
BREEZE-M R/B 4.0 16:52:17 10° WSW 16:58:43 47° SSE 17:01:47 13° E
AQUARIUS 4.2 16:55:11 10° SSE 16:59:37 60° ENE 17:04:04 10° N
Feng Yun 1-1 Rocket 4.1 16:55:36 10° SSE 17:00:58 73° ENE 17:06:23 10° NNW
Cosmos 2279 Rocket 4.0 16:55:18 10° N 17:01:34 69° ENE 17:07:48 10° SSE
Cosmos 44 Rocket 4.2 16:59:06 10° NW 17:03:40 51° SW 17:08:13 10° SSE
Cosmos 1634 Rocket 4.2 16:57:34 10° NNW 17:03:46 78° W 17:09:56 10° S
Meteor 1-26 Rocket 4.3 16:58:42 10° S 17:04:34 90° ESE 17:10:19 10° NNE
Cosmos 2237 Rocket 3.7 17:07:30 10° SE 17:10:43 16° E 17:11:43 15° E
CZ-4 R/B 2.3 17:08:00 10° ESE 17:11:13 25° ENE 17:14:24 10° N
Cosmos 1536 3.8 17:08:05 10° N 17:11:32 26° ENE 17:14:57 10° SE
Cosmos 1844 4.2 17:08:23 10° NW 17:14:02 64° WSW 17:19:37 10° SSE
Cosmos 1812 3.8 17:11:06 10° SE 17:14:14 24° E 17:15:32 20° ENE
Radarsat 4.5 17:09:14 10° SSE 17:14:25 79° ENE 17:19:39 10° NNW
Cosmos 2322 Rocket 2.8 17:08:57 10° SW 17:14:28 55° NW 17:20:02 10° NNE
SL-16 R/B 3.1 17:13:37 10° WSW 17:19:05 47° NW 17:24:36 10° NNE
SeaSat 1 3.6 17:17:12 18° ENE 17:19:09 23° NE 17:23:00 10° NNW
Cosmos 1707 Rocket 3.6 17:17:57 10° S 17:22:21 64° E 17:26:48 10° NNE
Nadezhda 4 Rocket 4.4 17:20:38 10° SSE 17:26:30 42° E 17:32:23 10° NNE
Cosmos 2219 Rocket 2.5 17:25:01 10° S 17:30:22 48° ESE 17:34:06 19° NE
Envisat 2.9 17:25:40 10° SSE 17:30:42 68° ENE 17:35:47 10° N
USA 215 3.3 17:25:50 19° ENE 17:30:50 78° NNW 17:37:22 10° WSW
Lacrosse 5 rocket 3.2 17:28:59 10° SSE 17:31:27 15° SE 17:31:54 15° ESE
COSMOS 2455 3.5 17:25:49 10° WSW 17:31:41 53° NW 17:36:51 14° NNE
STARLINK-67 3.7 17:29:26 10° SW 17:31:56 30° SSE 17:32:26 28° SE
SMAP 3.5 17:27:50 10° S 17:32:28 66° WSW 17:37:07 10° NNW
YAOGAN 3 4.5 17:28:20 10° SSE 17:32:41 77° ENE 17:37:04 10° NNW
ERBS 3.8 17:31:39 10° WNW 17:34:45 36° SW 17:37:52 10° SSE
Cosmos 1844 Rocket 4.2 17:29:47 10° NW 17:34:55 38° WSW 17:40:01 10° S
CENTAUR R/B 4.2 17:28:00 10° NW 17:35:33 48° WSW 17:43:44 10° SSE
Cosmos 2237 4.4 17:30:53 10° SW 17:36:37 72° WNW 17:41:44 13° NNE
Cosmos 2297 4.4 17:31:37 10° NNW 17:36:46 32° NE 17:38:58 25° E
COSMO-SKYMED 1 3.3 17:35:38 27° ENE 17:36:58 32° E 17:40:53 10° SSE
Cosmos 1908 Rocket 4.1 17:32:55 10° N 17:37:01 35° ENE 17:41:04 10° SE
CORIOLIS 4.4 17:32:16 10° S 17:37:42 74° WSW 17:43:12 10° NNW
Cosmos 1500 3.0 17:36:07 10° N 17:39:55 70° ENE 17:43:40 10° SSE
SL-4 R/B 3.1 17:38:34 10° SSW 17:41:51 28° SE 17:42:51 24° ESE
H-2A R/B 3.5 17:38:45 10° S 17:42:23 51° W 17:46:01 10° NNW
Cosmos 304 Rocket 4.4 17:38:05 10° NNW 17:42:50 60° WSW 17:47:33 10° S
Cosmos 1992 Rocket 3.9 17:39:40 10° NNW 17:44:53 66° ENE 17:50:05 10° SE
Meteor 1-5 Rocket 4.2 17:40:51 10° NNW 17:46:33 83° W 17:52:01 10° S
NOSS 2-2 (D) 4.2 17:43:39 10° WSW 17:47:18 44° NNW 17:49:38 23° NNE
COSMOS 2428 2.7 17:42:02 10° SSW 17:47:36 61° ESE 17:51:04 24° NE
NOAA 12 4.2 17:42:48 10° SSE 17:48:08 78° WSW 17:53:28 10° NNW
Cosmos 1782 4.1 17:46:25 10° SW 17:50:13 41° WNW 17:54:02 10° N
YAOGAN 1 2.7 17:47:18 10° SE 17:51:28 49° ENE 17:55:40 10° N
Cosmos 292 Rocket 4.0 17:47:50 10° NNW 17:52:32 45° ENE 17:54:26 30° ESE
Cosmos 1315 Rocket 3.5 17:48:41 10° SSW 17:52:36 54° WNW 17:56:34 10° N
Cosmos 1943 Rocket 3.5 17:48:38 10° NNW 17:52:58 22° NNE 17:53:09 22° NE
FengYun 1-2 T 4.1 17:50:36 10° SSE 17:56:05 82° ENE 18:01:37 10° NNW
CSL-04 Rocket 3.6 17:52:19 10° SSE 17:57:30 60° ENE 18:02:43 10° N
Cosmos 1733 Rocket 3.6 18:01:35 10° NNW 18:05:53 58° W 18:10:10 10° S
USA 229 DEB 4.5 17:59:29 10° NW 18:05:56 37° NNE 18:08:26 29° NE
USA 229 4.5 17:59:35 10° NW 18:06:01 37° NNE 18:08:31 29° NE
CSL-04 Debris 4.1 18:01:40 10° SSE 18:07:07 72° ENE 18:12:33 10° NNW
Meteor 2-6 Rocket 4.4 18:02:49 10° SSW 18:08:10 67° WNW 18:13:36 10° N
Cosmos 2333 4.4 18:02:51 10° SW 18:08:35 74° NW 18:12:22 22° NNE
Transit 2A Rocket 4.4 18:06:24 10° SSW 18:10:56 78° SE 18:11:49 55° NE
NOSS 3-4 (A) 3.5 18:05:21 10° SW 18:11:26 80° NW 18:14:46 31° NE
NOSS 3-4 (C) 3.5 18:05:27 10° SW 18:11:32 81° NW 18:14:52 31° NE
Meteor 1-10 Rocket 4.4 18:06:38 10° SSW 18:12:10 71° WNW 18:17:47 10° N
YAOGAN 6 2.8 18:08:59 10° S 18:12:29 68° WSW 18:16:03 10° NNW
ATLAS 3B R/B 4.4 18:07:30 10° WNW 18:13:20 32° WSW 18:19:17 10° S
Cosmos 2344 4.4 18:05:35 10° NW 18:13:44 48° NNE 18:18:31 31° ENE
Ariane Rocket 3.5 18:14:42 39° NE 18:14:42 39° NE 18:18:37 10° N
Cosmos 2322 4.1 18:08:39 10° SW 18:14:18 60° NW 18:18:04 21° NNE
BREEZE-M DEB (TANK) 3.3 18:11:30 10° WSW 18:15:20 30° S 18:15:46 29° S
ISS -2.9 18:13:06 10° W 18:16:19 42° SSW 18:16:28 42° SSW
Genesis I 4.2 18:14:25 10° NW 18:17:09 35° N 18:17:09 35° N
RESURS DK-1 2.2 18:15:25 10° SSW 18:19:32 76° ESE 18:19:34 75° ESE
Cosmos 2278 Rocket 2.7 18:17:46 10° NW 18:23:21 61° WSW 18:28:54 10° SSE
NOAA 11 4.0 18:18:58 10° SSE 18:24:23 74° ENE 18:29:53 10° NNW
Cosmos 1666 4.2 18:21:10 10° N 18:22:54 26° N 18:22:54 26° N
SKYMED 2 3.4 18:24:20 54° NNE 18:25:19 89° ESE 18:29:40 10° SSW
Cosmos 2195 Rocket 4.4 18:19:20 10° S 18:25:24 59° E 18:29:39 21° NNE
Cosmos 1092 Rocket 3.9 18:22:29 10° S 18:28:47 73° E 18:35:03 10° NNE
Cosmos 2242 Rocket 3.5 18:26:23 10° S 18:30:57 88° E 18:31:37 65° NNE
Meteor 1-27 Rocket 3.9 18:29:07 10° SSW 18:34:50 75° WNW 18:40:19 12° N
Cosmos 2360 Rocket 3.6 18:30:40 10° WSW 18:35:45 33° NW 18:39:12 18° N
Cosmos 2333 Rocket 2.6 18:33:41 10° SW 18:39:23 64° NW 18:41:54 34° NNE
SL-16 R/B 4.3 18:35:08 10° SSE 18:35:33 12° SSE 18:35:33 12° SSE
Cosmos 2369 Rocket 3.4 18:35:18 10° NNW 18:38:40 27° NNE 18:38:40 27° NNE
Cosmos 2251 Rocket 3.4 18:35:36 10° SSW 18:40:55 89° WNW 18:41:51 62° NNE
Cosmos 1862 Rocket 4.5 18:39:35 10° SSW 18:43:47 47° WNW 18:45:49 27° NNW
Cosmos 1980 Rocket 4.4 18:41:14 10° NW 18:43:55 13° NNW 18:45:53 11° N
H-2A R/B 4.2 18:49:28 13° N 18:49:28 13° N 18:50:03 10° N
CZ-4 R/B 2.7 18:42:24 10° SSW 18:46:06 39° W 18:49:46 10° NNW
NOSS 0 Rocket 3.8 18:41:14 10° SSW 18:47:28 83° ESE 18:48:39 61° NE
Cosmos 1536 4.4 18:44:21 10° NNW 18:48:03 35° W 18:51:44 10° SSW
Cosmos 1812 4.2 18:46:18 10° SW 18:49:52 35° WNW 18:50:41 32° NW
ATLAS 2AS CENTAUR R/B 3.5 18:42:03 10° WSW 18:49:55 55° NNW 18:53:29 33° NNE
Cosmos 2237 Rocket 2.1 18:48:11 10° SSW 18:53:35 76° SSE 18:53:35 76° SSE
SeaSat 1 2.7 18:57:00 62° NNW 18:57:00 62° NNW 19:01:08 10° NNW
Cosmos 2322 Rocket 4.3 18:55:57 10° WNW 18:59:49 18° NNW 19:02:13 15° N
Cosmos 1867 4.1 18:57:04 10° NW 19:01:14 47° NNW 19:01:14 47° NNW
SL-16 R/B 4.3 19:01:03 10° WNW 19:04:41 17° NNW 19:06:50 14° N
Lacrosse 5 rocket 3.4 19:05:54 10° SW 19:07:34 23° SW 19:07:34 23° SW
Cosmos 1553 Rocket 3.9 19:03:48 10° N 19:10:09 89° ENE 19:10:25 84° SSE
COSMO-SKYMED 1 4.0 19:12:50 34° NW 19:13:09 35° WNW 19:17:06 10° SW
Exosat Rocket 4.2 19:08:17 10° SW 19:13:21 50° NW 19:13:38 50° NW
USA 215 3.4 19:13:11 59° NNE 19:13:37 60° N 19:20:02 10° WNW
Cosmos 2219 Rocket 3.3 19:09:12 10° WSW 19:14:28 40° NW 19:15:50 35° NNW
COSMOS 2455 4.5 19:14:13 10° WNW 19:18:59 23° NNW 19:19:59 22° N
Cosmos 1428 Rocket 4.5 19:13:22 10° SSW 19:19:03 75° SW 19:19:03 75° SW
SL-4 R/B 4.3 19:17:08 10° WSW 19:18:28 21° WSW 19:18:28 21° WSW
Cosmos 2297 4.0 19:15:43 10° NW 19:20:56 63° W 19:20:56 63° W
Cosmos 1980 4.1 19:18:07 10° SW 19:22:58 59° W 19:22:58 59° W
COSMOS 2428 4.0 19:27:06 10° WSW 19:32:15 34° NW 19:33:05 32° NNW
Cosmos 2026 Rocket 4.4 19:28:47 10° SSW 19:34:44 57° WNW 19:35:16 56° NW
Cosmos 1943 Rocket 3.7 19:32:05 10° NNW 19:34:41 28° NNW 19:34:41 28° NNW
NOSS 3-1 (C) 4.3 19:44:55 10° NW 19:50:16 53° NNW 19:50:16 53° NNW
USA 229 DEB 4.4 19:50:50 10° NW 19:55:52 48° NNW 19:55:52 48° NNW
USA 229 4.4 19:50:57 10° NW 19:55:57 48° NNW 19:55:57 48° NNW
Cosmos 2333 Rocket 4.4 20:20:35 10° WNW 20:23:55 20° NW 20:23:55 20° NW
Cosmos 2344 4.2 20:20:12 10° NW 20:28:32 78° NW 20:28:32 78° NW
ATLAS 2AS CENTAUR R/B 4.2 20:35:14 10° WNW 20:40:55 34° NNW 20:40:55 34° NNW
